EDT,Max TemperatureF,Mean TemperatureF,Min TemperatureF,Max Dew PointF,MeanDew PointF,Min DewpointF,Max Humidity, Mean Humidity, Min Humidity, Max Sea Level PressureIn, Mean Sea Level PressureIn, Min Sea Level PressureIn, Max VisibilityMiles, Mean VisibilityMiles, Min VisibilityMiles, Max Wind SpeedMPH, Mean Wind SpeedMPH, Max Gust SpeedMPH,PrecipitationIn, CloudCover, Events, WindDirDegrees
2013-4-1,64,59,53,55,53,51,93,87,80,29.90,29.86,29.82,10,5,1,14,6,25,0.02,5,,245
2013-4-2,57,50,43,46,35,25,83,61,38,30.16,30.08,29.94,10,10,10,18,9,29,0.00,2,,68
2013-4-3,53,48,43,44,33,24,83,59,35,30.32,30.22,30.13,10,10,10,16,7,25,0.00,4,,57
2013-4-4,60,52,44,56,42,28,93,70,46,30.36,30.16,29.85,10,8,2,24,12,30,0.79,4,Rain,82
2013-4-5,64,53,42,60,50,44,100,86,71,30.00,29.83,29.70,10,7,1,29,8,37,0.33,6,Rain,297
2013-4-6,55,48,40,47,40,37,89,72,54,30.31,30.17,30.01,10,9,2,21,9,31,0.00,0,,33
2013-4-7,71,60,49,52,47,43,86,67,48,30.29,30.24,30.19,10,10,10,13,6,16,0.00,0,,114
2013-4-8,68,61,53,57,54,49,93,80,67,30.23,30.18,30.14,10,10,6,12,6,16,0.00,0,,207
2013-4-9,69,63,57,58,57,55,93,81,68,30.23,30.17,30.12,10,9,3,13,8,17,0.00,0,,224
2013-4-10,68,63,58,59,57,56,93,83,73,30.15,30.09,30.02,10,9,6,17,10,25,0.00,0,,233
2013-4-11,72,65,57,62,59,56,93,83,73,30.05,29.99,29.92,10,9,6,16,9,22,0.00,1,,222
2013-4-12,68,65,61,65,61,58,100,92,84,29.92,29.81,29.73,7,3,0,22,12,30,0.50,6,Fog-Rain,213
2013-4-13,64,57,49,63,54,40,97,70,43,30.03,29.85,29.74,10,5,1,20,10,32,0.00,3,,281
2013-4-14,74,61,47,55,49,44,89,64,38,30.15,30.09,30.03,10,8,2,13,6,17,0.00,0,,158
2013-4-15,71,66,60,61,56,48,93,75,57,30.21,30.13,30.09,10,9,6,21,9,26,0.11,6,Rain,88
2013-4-16,73,66,58,61,58,55,93,75,57,30.30,30.24,30.19,10,8,3,13,7,17,T,6,,95
2013-4-17,73,63,52,60,56,50,93,75,57,30.25,30.22,30.18,10,8,2,7,4,9,0.00,0,,130
2013-4-18,77,68,59,61,59,57,93,74,54,30.26,30.19,30.13,10,10,5,13,7,16,0.00,2,,126
2013-4-19,73,69,64,65,63,61,93,83,73,30.12,30.00,29.92,10,6,2,25,13,35,0.19,5,Rain,197
2013-4-20,68,59,50,64,56,39,93,76,59,30.27,30.00,29.88,10,6,0,22,9,29,1.14,6,Fog-Rain,291
2013-4-21,59,55,50,44,41,38,74,61,47,30.47,30.40,30.28,10,10,10,22,14,36,0.00,0,,47
2013-4-22,58,56,53,56,53,45,93,82,71,30.39,30.22,30.12,10,6,2,21,14,36,0.28,8,Rain,34
2013-4-23,57,55,52,54,51,48,93,85,77,30.19,30.12,30.05,10,8,3,18,11,33,0.00,8,,18
2013-4-24,65,55,44,57,49,41,100,86,72,30.22,30.16,30.08,10,8,2,13,6,18,0.00,5,,163
2013-4-25,65,59,52,58,50,41,90,75,59,30.29,30.20,30.07,10,9,4,20,10,31,0.01,5,Rain,21
2013-4-26,63,57,50,49,46,43,77,65,52,30.41,30.38,30.28,10,10,10,16,7,24,0.00,0,,44
2013-4-27,69,62,54,51,46,40,83,59,35,30.39,30.35,30.32,10,10,10,15,7,23,0.00,0,,57
2013-4-28,73,61,48,56,49,38,72,60,47,30.31,30.23,30.16,10,10,10,14,7,18,T,2,Rain,87
2013-4-29,66,64,61,62,58,52,97,82,67,30.16,30.08,30.01,10,5,1,12,8,17,0.50,6,Rain,189
2013-4-30,69,65,61,63,60,58,93,83,73,30.12,30.07,30.01,10,10,8,14,7,21,0.00,4,,28